This demonstration page uses our WeatherBlox Daily Observations layout. Learn more.

41.55636, -103.73856

Hourly Observations for August 17, 2019

Temp ( °F °C ) Dew Point ( °F °C ) Humidity (%) Winds ( mph kmh ) Pressure ( in mb ) Visibility ( mi km ) Precip ( " mm )
12:53 am 00:53 Clear 63 17.2 60 15.6 90 90 SE 5 7 29.74 1007 10 16.09344 0 0
1:53 am 01:53 Clear 61 16.1 59 15 93 93 E 5 7 29.71 1006 10 16.09344 0 0
2:53 am 02:53 Clear 60 15.6 59 15 96 96 E 6 9 29.68 1005 10 16.09344 0 0
3:53 am 03:53 Clear 58 14.4 57 13.9 97 97 E 6 9 29.68 1005 10 16.09344 0 0
4:44 am 04:44 Partly Cloudy 59 15 57 14 94 94 Calm 29.71 1006 8 12.874752 0 0
4:49 am 04:49 Mostly Cloudy with Mist and Fog 59 15 57 14 94 94 Calm 29.71 1006 2.5 4.02336 0 0
4:53 am 04:53 Mostly Cloudy with Fog 59 15 58 14.4 96 96 Calm 29.68 1005 0.5 0.804672 0 0
5:02 am 05:02 Mostly Cloudy with Fog 59 15 57 14 94 94 VRB 3 6 29.71 1006 0.25 0.402336 0 0
5:53 am 05:53 Mostly Cloudy with Fog 57 13.9 57 13.9 100 100 WNW 6 9 29.71 1006 0.25 0.402336 0 0
5:58 am 05:58 Mostly Cloudy with Mist and Fog 57 14 55 13 94 94 WNW 6 9 29.74 1007 1 1.609344 0 0
6:03 am 06:03 Partly Cloudy with Mist and Fog 57 13.9 56 13.3 96 96 NW 7 11 29.74 1007 3 4.828032 0 0
6:53 am 06:53 Sunny 57 13.9 56 13.3 96 96 NW 8 13 29.71 1006 10 16.09344 0 0
7:08 am 07:08 Partly Cloudy with Mist and Fog 57 14 57 14 100 100 NW 7 11 29.74 1007 4 6.437376 0 0
7:11 am 07:11 Mostly Cloudy with Mist and Fog 57 13.9 56 13.3 96 96 NW 7 11 29.74 1007 1.25 2.01168 0 0
7:17 am 07:17 Mostly Cloudy with Fog 57 13.9 56 13.3 96 96 WNW 8 13 29.77 1008 0.25 0.402336 0 0
7:53 am 07:53 Mostly Cloudy with Fog 57 13.9 57 13.9 100 100 WNW 6 9 29.74 1007 0.25 0.402336 0 0
8:19 am 08:19 Mostly Cloudy with Fog 59 15 58 14.4 96 96 WNW 7 11 29.74 1007 0.5 0.804672 0 0
8:35 am 08:35 Cloudy with Mist and Fog 60 15.6 59 15 96 96 NW 6 9 29.74 1007 2 3.218688 0 0
8:43 am 08:43 Mostly Cloudy with Mist and Fog 60 15.6 59 15 96 96 WNW 7 11 29.74 1007 6 9.656064 0 0
8:53 am 08:53 Partly Cloudy 60 15.6 59 15 96 96 NW 5 7 29.74 1007 8 12.874752 0 0
9:53 am 09:53 Sunny 72 22.2 60 15.6 66 66 WNW 8 13 29.71 1006 10 16.09344 0 0
10:53 am 10:53 Sunny 78 25.6 56 13.3 47 47 WNW 8 13 29.68 1005 10 16.09344 0 0
11:53 am 11:53 Sunny 84 28.9 51 10.6 32 32 W 13 20 29.65 1004 10 16.09344 0 0
12:53 pm 12:53 Sunny 85 29.4 48 8.9 28 28 W 7 11 29.62 1003 10 16.09344 0 0
1:53 pm 13:53 Sunny 89 31.7 49 9.4 25 25 N 5 7 29.59 1002 10 16.09344 0 0
2:53 pm 14:53 Sunny 90 32.2 47 8.3 23 23 S 5 7 29.56 1001 10 16.09344 0 0
3:53 pm 15:53 Sunny 83 28.3 58 14.4 43 43 ESE 6 9 29.59 1002 10 16.09344 0 0
4:53 pm 16:53 Partly Cloudy with Light Rain 78 25.6 57 13.9 48 48 SSW 6 9 29.59 1002 10 16.09344 0.001 0.001
5:53 pm 17:53 Sunny 82 27.8 47 8.3 29 29 SSW 5 7 29.56 1001 10 16.09344 0.001 0.001
6:53 pm 18:53 Sunny 81 27.2 55 12.8 41 41 NNE 6 9 29.56 1001 10 16.09344 0 0
7:53 pm 19:53 Clear 74 23.3 56 13.3 54 54 E 6 9 29.62 1003 10 16.09344 0 0
8:53 pm 20:53 Clear 67 19.4 60 15.6 79 79 NNE 25 41 29.71 1006 10 16.09344 0 0
9:53 pm 21:53 Mostly Cloudy 64 17.8 58 14.4 81 81 NNE 28 44 29.71 1006 10 16.09344 0 0
10:27 pm 22:27 Partly Cloudy 63 17.2 58 14.4 84 84 NE 17 28 29.74 1007 10 16.09344 0 0
10:53 pm 22:53 Mostly Cloudy 63 17.2 58 14.4 84 84 VRB 3 6 29.77 1008 10 16.09344 0 0
11:53 pm 23:53 Cloudy 63 17.2 58 14.4 84 84 NNE 10 17 29.8 1009 10 16.09344 0 0

Powered by AerisWeather